Location: Unspecified
(0.0000°N, 0.0000°E)
Time: 16:30:45
(UTC+00:00)

N. Korean satellite - Pass Details

Date: 20 January 2020
Orbit: 456 x 505 km, 97.2° (Epoch: 24 February)

Event Time Altitude Azimuth Distance (km) Brightness Sun altitude
Rises 04:55:20 0° 29° (NNE) 2,541 10.3 -17.7°
Reaches altitude 10° 04:57:35 10° 42° (NE) 1,673 9.5 -17.1°
Maximum altitude 05:00:41 27° 101° (ESE) 973 8.9 -16.4°
Drops below altitude 10° 05:03:50 10° 161° (SSE) 1,701 9.9 -15.7°
Sets 05:06:08 0° 173° (S) 2,593 10.7 -15.1°
